Location: Ku?niki
(51.4449°N, 17.8974°E)
Time: 12:41:15
(UTC+00:00)

POLYITAN 1 - Pass Details

Date: 29 June 2022
Orbit: 587 x 604 km, 98.0° (Epoch: 07 August)

Event Time Altitude Azimuth Distance (km) Brightness Sun altitude
Rises 00:56:00 0° 13° (NNE) 2,856 ? -10.5°
Reaches altitude 10° 00:58:10 10° 12° (NNE) 1,951 ? -10.3°
Maximum altitude 01:02:24 78° 287° (WNW) 622 ? -10.0°
Enters shadow 01:06:11 13° 202° (SSW) 1,766 ? -9.7°
